Location: Wald
(31.7579°N, 86.6655°W)
Time: 20:48:32
(UTC+00:00)

ATLAS 2A CENTAUR R/B - Pass Details

Date: 14 July 2020
Orbit: 244 x 14723 km, 26.8° (Epoch: 13 August)

Event Time Altitude Azimuth Distance (km) Brightness Sun altitude
Rises 09:04:02 0° 269° (W) 8,912 8.0 -19.7°
Reaches altitude 10° 09:13:09 10° 267° (W) 5,570 6.9 -18.3°
Maximum altitude 09:24:31 51° 195° (SSW) 1,061 3.4 -16.4°
Drops below altitude 10° 09:27:49 10° 117° (ESE) 1,673 5.1 -15.9°
Sets 09:29:08 0° 111° (ESE) 2,257 5.9 -15.7°
